User: anonymous   Login
Location: Unspecified
(34.4950°S, 58.5160°W)
Time: 03:29:04
(UTC+00:00)
Language:

Timation 1 Rocket - Orbit

View from above orbital plane
View from above orbital plane
View from above satellite
View from above satellite

Ground track
Ground track

The orbit data is extracted from the following two-line orbital elements,

1 02825U 67053B   22144.86768848  .00000070  00000-0  88073-4 0  9993
2 02825  69.9734  18.7650 0009358 293.6152  66.3971 13.97219557884749
Epoch (UTC): 24 May 2022 20:49:28
Eccentricity: 0.0009358
inclination: 69.9734°
perigee height: 896 km
apogee height: 910 km
right ascension of ascending node: 18.7650°
argument of perigee: 293.6152°
revolutions per day: 13.97219557
mean anomaly at epoch: 66.3971°
orbit number at epoch: 88474

The dashed part of the orbit path shows where the satellite is in the earth's shadow,  

DLR